When you browse on this site, cookies collect data to enhance your experience and personalize the content and advertising you see.
Visit our Privacy Policy to learn more. By continuing to use the site, you agree to this use of cookies and data.

Previsão horária em Timoshino

Hoje, 8 Julho, Quarta-feira

Tempo Temperatura Precipitação Vento Pressão Humidade
00:00 +19°C° 0.5 mm 2 m/s 734 mmHg 97%
01:00 +20°C° 0.5 mm 1 m/s 733 mmHg 97%
02:00 +18°C° 0 mm 2 m/s 734 mmHg 94%
03:00 +18°C° 0 mm 2 m/s 734 mmHg 95%
04:00 +18°C° 0 mm 2 m/s 734 mmHg 96%
05:00 +18°C° 0 mm 2 m/s 734 mmHg 97%
06:00 +19°C° 0.1 mm 2 m/s 734 mmHg 95%
07:00 +19°C° 0.1 mm 3 m/s 734 mmHg 93%
08:00 +20°C° 0 mm 2 m/s 734 mmHg 91%
09:00 +20°C° 0.4 mm 2 m/s 734 mmHg 92%
10:00 +19°C° 0.4 mm 2 m/s 735 mmHg 94%
11:00 +19°C° 0.4 mm 3 m/s 735 mmHg 95%
12:00 +19°C° 0.2 mm 3 m/s 735 mmHg 94%
13:00 +19°C° 0.2 mm 3 m/s 736 mmHg 92%
14:00 +19°C° 0.2 mm 4 m/s 736 mmHg 91%
15:00 +18°C° 0 mm 4 m/s 736 mmHg 89%
16:00 +17°C° 0 mm 4 m/s 736 mmHg 88%
17:00 +15°C° 0 mm 5 m/s 737 mmHg 86%
18:00 +14°C° 0.3 mm 5 m/s 737 mmHg 89%
19:00 +13°C° 0.3 mm 4 m/s 737 mmHg 91%
20:00 +12°C° 0.3 mm 4 m/s 737 mmHg 93%
21:00 +12°C° 1.4 mm 4 m/s 737 mmHg 95%
22:00 +12°C° 1.4 mm 4 m/s 737 mmHg 96%
23:00 +11°C° 1.4 mm 3 m/s 737 mmHg 97%

Amanhã, 9 Julho, Quinta-feira

Tempo Temperatura Precipitação Vento Pressão Humidade
00:00 +11°C° 1.1 mm 3 m/s 738 mmHg 97%
01:00 +11°C° 1.1 mm 3 m/s 738 mmHg 97%
02:00 +11°C° 1.1 mm 3 m/s 738 mmHg 97%
03:00 +11°C° 0 mm 3 m/s 738 mmHg 96%
04:00 +11°C° 0 mm 3 m/s 738 mmHg 96%
05:00 +12°C° 0 mm 2 m/s 738 mmHg 95%
06:00 +14°C° 0 mm 2 m/s 738 mmHg 88%
07:00 +15°C° 0 mm 2 m/s 738 mmHg 82%
08:00 +16°C° 0 mm 2 m/s 739 mmHg 76%
09:00 +17°C° 0.2 mm 3 m/s 739 mmHg 74%
10:00 +18°C° 0.2 mm 3 m/s 739 mmHg 72%
11:00 +19°C° 0.2 mm 3 m/s 740 mmHg 71%
12:00 +19°C° 0.4 mm 3 m/s 740 mmHg 70%
13:00 +19°C° 0.4 mm 3 m/s 740 mmHg 69%
14:00 +20°C° 0.4 mm 4 m/s 740 mmHg 69%
15:00 +19°C° 0.2 mm 3 m/s 740 mmHg 68%
16:00 +19°C° 0.2 mm 3 m/s 740 mmHg 68%
17:00 +19°C° 0.2 mm 3 m/s 740 mmHg 68%
18:00 +18°C° 0 mm 3 m/s 741 mmHg 74%
19:00 +16°C° 0 mm 2 m/s 741 mmHg 79%
20:00 +15°C° 0 mm 2 m/s 741 mmHg 84%
21:00 +14°C° 0 mm 2 m/s 741 mmHg 86%
22:00 +13°C° 0 mm 2 m/s 742 mmHg 88%
23:00 +12°C° 0 mm 2 m/s 743 mmHg 89%

Depois de amanhã, 10 Julho, Sexta-feira

Tempo Temperatura Precipitação Vento Pressão Humidade
00:00 +10°C° 0 mm 2 m/s 743 mmHg 89%
01:00 +10°C° 0 mm 2 m/s 743 mmHg 90%
02:00 +9°C° 0 mm 2 m/s 743 mmHg 90%
03:00 +9°C° 0 mm 2 m/s 743 mmHg 89%
04:00 +10°C° 0 mm 2 m/s 744 mmHg 88%
05:00 +10°C° 0 mm 2 m/s 744 mmHg 86%
06:00 +14°C° 0 mm 2 m/s 744 mmHg 79%
07:00 +16°C° 0 mm 2 m/s 744 mmHg 73%
08:00 +18°C° 0 mm 2 m/s 745 mmHg 66%
09:00 +19°C° 0 mm 2 m/s 745 mmHg 62%
10:00 +20°C° 0 mm 3 m/s 745 mmHg 58%
11:00 +21°C° 0 mm 3 m/s 745 mmHg 54%
12:00 +21°C° 0 mm 3 m/s 745 mmHg 53%
13:00 +22°C° 0 mm 3 m/s 745 mmHg 52%
14:00 +22°C° 0 mm 3 m/s 745 mmHg 52%
15:00 +22°C° 0 mm 3 m/s 745 mmHg 56%
16:00 +21°C° 0 mm 3 m/s 745 mmHg 60%
17:00 +21°C° 0 mm 2 m/s 745 mmHg 65%
18:00 +19°C° 0 mm 2 m/s 745 mmHg 71%
19:00 +18°C° 0 mm 2 m/s 745 mmHg 78%
20:00 +16°C° 0 mm 2 m/s 745 mmHg 84%
21:00 +16°C° 0 mm 2 m/s 745 mmHg 84%
22:00 +16°C° 0 mm 2 m/s 745 mmHg 84%
23:00 +16°C° 0 mm 3 m/s 745 mmHg 84%

11 Julho, Sábado

Tempo Temperatura Precipitação Vento Pressão Humidade
00:00 +16°C° 0 mm 3 m/s 745 mmHg 85%
01:00 +16°C° 0 mm 3 m/s 745 mmHg 87%
02:00 +14°C° 0 mm 3 m/s 744 mmHg 89%
03:00 +15°C° 0 mm 4 m/s 744 mmHg 88%
04:00 +15°C° 0 mm 4 m/s 744 mmHg 88%
05:00 +15°C° 0 mm 4 m/s 745 mmHg 87%
06:00 +18°C° 0 mm 4 m/s 745 mmHg 82%
07:00 +19°C° 0 mm 5 m/s 745 mmHg 77%
08:00 +21°C° 0 mm 5 m/s 745 mmHg 72%
09:00 +22°C° 0 mm 6 m/s 745 mmHg 69%
10:00 +24°C° 0 mm 6 m/s 745 mmHg 66%
11:00 +26°C° 0 mm 6 m/s 744 mmHg 63%
12:00 +26°C° 0.2 mm 6 m/s 744 mmHg 64%
13:00 +26°C° 0.2 mm 6 m/s 744 mmHg 66%
14:00 +27°C° 0.2 mm 6 m/s 744 mmHg 68%
15:00 +26°C° 0.1 mm 5 m/s 744 mmHg 69%
16:00 +26°C° 0.1 mm 5 m/s 744 mmHg 70%
17:00 +26°C° 0.1 mm 4 m/s 743 mmHg 71%
18:00 +25°C° 0.3 mm 4 m/s 744 mmHg 77%
19:00 +23°C° 0.3 mm 4 m/s 744 mmHg 83%
20:00 +21°C° 0.3 mm 3 m/s 744 mmHg 88%
21:00 +21°C° 0.5 mm 3 m/s 744 mmHg 90%
22:00 +20°C° 0.5 mm 3 m/s 744 mmHg 92%
23:00 +20°C° 0.5 mm 3 m/s 744 mmHg 94%

12 Julho, Domingo

Tempo Temperatura Precipitação Vento Pressão Humidade
00:00 +19°C° 0.1 mm 3 m/s 744 mmHg 94%
01:00 +19°C° 0.1 mm 3 m/s 743 mmHg 95%
02:00 +18°C° 0.1 mm 3 m/s 743 mmHg 96%
03:00 +18°C° 0.2 mm 3 m/s 743 mmHg 95%
04:00 +18°C° 0.2 mm 3 m/s 743 mmHg 95%
05:00 +18°C° 0.2 mm 3 m/s 743 mmHg 94%
06:00 +20°C° 0 mm 3 m/s 743 mmHg 88%
07:00 +21°C° 0 mm 3 m/s 743 mmHg 83%
08:00 +22°C° 0 mm 3 m/s 743 mmHg 77%
09:00 +25°C° 0 mm 4 m/s 743 mmHg 72%
10:00 +26°C° 0 mm 4 m/s 742 mmHg 67%
11:00 +27°C° 0 mm 4 m/s 742 mmHg 62%
12:00 +27°C° 0.3 mm 4 m/s 742 mmHg 62%
13:00 +27°C° 0.3 mm 4 m/s 742 mmHg 63%
14:00 +27°C° 0.3 mm 4 m/s 742 mmHg 63%
15:00 +26°C° 0.7 mm 4 m/s 742 mmHg 71%
16:00 +25°C° 0.7 mm 3 m/s 742 mmHg 78%
17:00 +24°C° 0.7 mm 3 m/s 742 mmHg 86%
18:00 +21°C° 0.9 mm 3 m/s 742 mmHg 90%
19:00 +19°C° 0.9 mm 3 m/s 742 mmHg 94%
20:00 +17°C° 0.9 mm 3 m/s 742 mmHg 97%
21:00 +16°C° 0.3 mm 3 m/s 742 mmHg 97%
22:00 +14°C° 0.3 mm 3 m/s 742 mmHg 97%
23:00 +13°C° 0.3 mm 3 m/s 742 mmHg 97%

13 Julho, Segunda-feira

Tempo Temperatura Precipitação Vento Pressão Humidade
00:00 +13°C° 0 mm 3 m/s 742 mmHg 97%
01:00 +12°C° 0 mm 3 m/s 741 mmHg 97%
02:00 +12°C° 0 mm 3 m/s 741 mmHg 96%
03:00 +12°C° 0 mm 3 m/s 741 mmHg 96%
04:00 +11°C° 0 mm 3 m/s 741 mmHg 95%
05:00 +11°C° 0 mm 3 m/s 741 mmHg 94%
06:00 +11°C° 0 mm 3 m/s 741 mmHg 92%
07:00 +12°C° 0 mm 3 m/s 741 mmHg 91%
08:00 +12°C° 0 mm 3 m/s 741 mmHg 89%
09:00 +12°C° 0 mm 3 m/s 741 mmHg 88%
10:00 +12°C° 0 mm 3 m/s 741 mmHg 86%
11:00 +12°C° 0 mm 3 m/s 741 mmHg 85%
12:00 +12°C° 0.2 mm 3 m/s 741 mmHg 87%
13:00 +12°C° 0.2 mm 3 m/s 741 mmHg 89%
14:00 +12°C° 0.2 mm 3 m/s 740 mmHg 91%
15:00 +13°C° 0 mm 3 m/s 740 mmHg 89%
16:00 +13°C° 0 mm 3 m/s 740 mmHg 86%
17:00 +14°C° 0 mm 3 m/s 739 mmHg 83%
18:00 +15°C° 0 mm 2 m/s 739 mmHg 85%
19:00 +14°C° 0 mm 2 m/s 739 mmHg 86%
20:00 +14°C° 0 mm 2 m/s 739 mmHg 88%
21:00 +14°C° 0 mm 2 m/s 739 mmHg 88%
22:00 +14°C° 0 mm 2 m/s 739 mmHg 88%
23:00 +14°C° 0 mm 2 m/s 739 mmHg 88%
Mostrar mais